Other Surface Observations
Issued by NWS

Home | Current Version | Previous Version | Text Only | Print | Product List | Glossary On
Versions: 1 2 3 4 5 6 7 8 9 10 11 12 13 14 15 16 17 18 19 20 21 22 23 24 25 26 27 28 29 30 31 32 33 34 35 36 37 38 39 40 41 42 43 44 45 46 47 48 49 50
000
SXUS52 KTAE 261218
OSOTAE
OSOTAE
North Florida/South Alabama/Southwest Georgia Weather Roundup
National Weather Service Tallahassee Florida
800 AM EDT THU MAY 26 2016

Note: "fair" indicates few or no clouds below 12,000 feet with no
significant weather and/or obstructions to visibility.

!FLZ017-115-028-034-025-261300
...North Florida...

CITY           SKY/WX    TMP DP  RH WIND       PRES   REMARKS
TALLAHASSEE    MOSUNNY   71  62  73 E7        30.17R
APALACHICOLA   MOSUNNY   77  72  84 SE8       30.15R
PERRY          SUNNY     69  62  78 SE3       30.19R
CROSS CITY       N/A     68  60  75 CALM      30.18R
JACKSONVILLE   MOSUNNY   69  66  90 CALM      30.18R
$$

!FLZ112-006-005-002-011-261300
...Florida Panhandle...

CITY           SKY/WX    TMP DP  RH WIND       PRES   REMARKS
MARIANNA       MOSUNNY   70  67  90 E3        30.17R
BONIFAY        FAIR      69  68  96 CALM      30.18  FOG
PANAMA CITY NW FAIR      70  69  97 CALM      30.15R
TYNDALL AFB    MOSUNNY   73  72  98 NE2       30.16R FOG
TYND DRONE APT FAIR      73  73 100 MISG      30.16R
DE FUNIAK SPR  FOG       69  69 100 E5        30.17R VSB 1/4
EGLIN AFB      PTSUNNY   73  69  88 CALM      30.14R
DESTIN         CLOUDY    78  73  84 SE6       30.15R
HURLBURT       CLOUDY    71  69  93 CALM      30.14R
CRESTVIEW      FOG       69  68  96 CALM      30.18R VSB<1/4
PENSACOLA      CLOUDY    76  70  82 S3        30.14R
$$

!ALZ063-066-261300
...South Alabama...

CITY           SKY/WX    TMP DP  RH WIND       PRES   REMARKS
DOTHAN         MOSUNNY   70  68  93 SE7       30.22R
OZARK CAIRNS   CLOUDY    70  70 100 SE3       30.19R
FT RUCKER HELI MOSUNNY   68  65  90 CALM      30.17R
RUCKER HELI 3  FAIR      70  67  91 E1        30.19R
RUCKER HELI 2  NOT AVBL
FLORALA APT    FOG       69  68  96 CALM      30.19R VSB 1/2
ANDALUSIA      FOG       72  69  90 CALM      30.17R VSB<1/4
TROY           MOSUNNY   68  65  90 CALM      30.17R
EUFALA         FAIR      72  68  87 CALM      30.18R
MOBILE         CLOUDY    69  68  96 E5        30.15R
$$

!GAZ120>161-261300
...Southwest and South Central Georgia...

CITY           SKY/WX    TMP DP  RH WIND       PRES   REMARKS
THOMASVILLE    FAIR      68  64  88 CALM      30.21R
BAINBRIDGE     SUNNY     70  64  83 CALM      30.19R
MOODY AFB      SUNNY     68  60  76 S1        30.19R
VALDOSTA       SUNNY     69  63  81 CALM      30.20R
MOULTRIE       SUNNY     68  63  83 SE3       30.21R
BLAKELY        MOSUNNY   70  68  94 CALM      30.19R
ALBANY         MOSUNNY   70  64  81 CALM      30.21R
TIFTON         FAIR      68  62  81 S3        30.20R
FITZGERALD     FAIR      70  62  77 CALM      30.23R
CORDELE        FAIR      74  62  64 S5        30.21R
AMERICUS       FAIR      68  66  94 SW3       30.22R
HOMERVILLE     FAIR      68  63  83 CALM      30.21R
$$

!GMZ750-755-770-775-261300
...Coastal and Buoy Obs...

STATION/POSITION TIME  TEMP    WIND        PRES    VSBY  WAVE
                       AIR SEA DIR/SP/G                  HT/PER
                 (UTC) (F)     (DEG/KT/KT) (MB)    (MI)  (FT/S)
KEATON BEACH     1200   68     110/  4/  5 1021.8R
CEDAR KEY        1200   76     130/ 11/ 12 1021.9R
C TOWER          1200   77     160/ 15/ 16 1021.4R
APALACHICOLA BUO 1150   78 77  140/ 14/ 16 1020.3R         3/ 4
PANAMA CITY BUOY 1150   78 80  120/ 14/ 16 1020.1R         2/ 6
MOBILE BUOY      1200   78 79  100/  6/  8 1020.0R
ORANGE BCH AL BU 1150   78 80  140/  6/  8 1019.9R         2/ 5
$$




USA.gov is the U.S. government's official web portal to all federal, state and local government web resources and services.